User: anonymous   Login
Location: Meetinghouse Hill
(42.7686°N, 71.7752°W)
Time: 15:56:24
(UTC-04:00)
Language:

Iridium 34 - Orbit

View from above orbital plane
View from above orbital plane
View from above satellite
View from above satellite

Ground track
Ground track

The orbit data is extracted from the following two-line orbital elements,

1 24969U 97056E   14296.23018005  .00000712  00000-0  24705-3 0  9933
2 24969 086.3991 003.4041 0002286 109.0022 251.1422 14.34222683893790
Epoch (UTC): 23 October 2014 05:31:27
Eccentricity: 0.0002286
inclination: 86.3991°
perigee height: 776 km
apogee height: 779 km
right ascension of ascending node: 3.4041°
argument of perigee: 109.0022°
revolutions per day: 14.34222683
mean anomaly at epoch: 251.1422°
orbit number at epoch: 89379

The dashed part of the orbit path shows where the satellite is in the earth's shadow,  

DLR